QFA64 FAOR-YSSY

Flight info

Callsign QFA64
Flight time N/A
Altitude 35000
Route APDAK1B APDAK UQ48 APMAT DCT 3139S03249E 3305S03404E 3558S03720E 3901S04139E 4207S04637E 4459S05133E/N0488F360 4745S05633E 5036S06233E/N0479F370 5256S06914E 5358S07500E 5404S07544E 5451S08409E 5458S08816E 5438S09747E 5402S10424E/N0492F390 5305S11152E 5135S12053E 4920S12933E 4701S13634E 4439S14119E 4046S14617E DCT MAKRL/N0490F400 J163 CB/N0491F410 W423 CULIN Y59 RIVET
Aircraft A388/J-SADE2E3FGHIJ3J4J5M1RWXY/LB1D1

Departure

Time 2026-05-03 21:12
Airport O.R. Tambo International Airport (FAOR)

Arrival

Time N/A
Airport Sydney Kingsford Smith International Airport (YSSY)
Time Latitude Longitude Altitude Speed Heading
2026-05-03 21:04 -26.12800 28.23400 5543 ft 0 kts 100°
2026-05-03 21:05 -26.12800 28.23401 5543 ft 0 kts 100°
2026-05-03 21:06 -26.12805 28.23439 5549 ft 11 kts 96°
2026-05-03 21:06 -26.12813 28.23531 5546 ft 12 kts 96°
2026-05-03 21:06 -26.12822 28.23631 5546 ft 13 kts 96°
2026-05-03 21:07 -26.12832 28.23737 5548 ft 12 kts 105°
2026-05-03 21:07 -26.12882 28.23769 5549 ft 9 kts 180°
2026-05-03 21:07 -26.12946 28.23760 5549 ft 11 kts 193°
2026-05-03 21:07 -26.13033 28.23734 5548 ft 20 kts 195°
2026-05-03 21:08 -26.13182 28.23689 5553 ft 21 kts 195°
2026-05-03 21:08 -26.13320 28.23645 5555 ft 20 kts 200°
2026-05-03 21:08 -26.13451 28.23602 5556 ft 19 kts 193°
2026-05-03 21:08 -26.13571 28.23563 5558 ft 18 kts 195°
2026-05-03 21:09 -26.13690 28.23526 5560 ft 18 kts 195°
2026-05-03 21:09 -26.13810 28.23489 5562 ft 18 kts 195°
2026-05-03 21:09 -26.13929 28.23453 5563 ft 18 kts 195°
2026-05-03 21:09 -26.14044 28.23418 5564 ft 17 kts 195°
2026-05-03 21:10 -26.14160 28.23383 5566 ft 18 kts 195°
2026-05-03 21:10 -26.14281 28.23346 5568 ft 18 kts 195°
2026-05-03 21:10 -26.14405 28.23308 5568 ft 18 kts 195°
2026-05-03 21:10 -26.14537 28.23288 5567 ft 20 kts 166°
2026-05-03 21:11 -26.14612 28.23392 5568 ft 15 kts 89°
2026-05-03 21:11 -26.14570 28.23457 5566 ft 2 kts 18°
2026-05-03 21:11 -26.14524 28.23472 5567 ft 23 kts 17°
2026-05-03 21:11 -26.14151 28.23590 5567 ft 92 kts 15°
2026-05-03 21:12 -26.13320 28.23845 5554 ft 152 kts 15°
2026-05-03 21:12 -26.12176 28.24202 5546 ft 184 kts 16°
2026-05-03 21:12 -26.10955 28.24603 6067 ft 182 kts 15°
2026-05-03 21:12 -26.09695 28.25023 6411 ft 195 kts 15°
2026-05-03 21:13 -26.08374 28.25463 6800 ft 202 kts 14°
2026-05-03 21:13 -26.07049 28.26005 7281 ft 200 kts 25°
2026-05-03 21:13 -26.05963 28.26862 7763 ft 192 kts 41°
2026-05-03 21:13 -26.05031 28.27934 7987 ft 196 kts 31°
2026-05-03 21:14 -26.03768 28.28501 8086 ft 199 kts 15°
2026-05-03 21:14 -26.02559 28.29329 8141 ft 215 kts 47°
2026-05-03 21:14 -26.01915 28.30865 8222 ft 228 kts 81°
2026-05-03 21:14 -26.02101 28.32639 8291 ft 238 kts 110°
2026-05-03 21:15 -26.02845 28.34313 8375 ft 245 kts 118°
2026-05-03 21:15 -26.03673 28.35997 8423 ft 251 kts 116°
2026-05-03 21:15 -26.04461 28.37807 8515 ft 269 kts 113°
2026-05-03 21:15 -26.05230 28.39810 8695 ft 293 kts 111°
2026-05-03 21:16 -26.05994 28.41965 9166 ft 303 kts 110°
2026-05-03 21:16 -26.06758 28.44182 9366 ft 308 kts 109°
2026-05-03 21:16 -26.07765 28.46268 9493 ft 308 kts 130°
2026-05-03 21:16 -26.09298 28.47900 9921 ft 310 kts 140°
2026-05-03 21:17 -26.10945 28.49444 10507 ft 311 kts 139°
2026-05-03 21:17 -26.12061 28.50543 10675 ft 321 kts 137°
2026-05-03 21:17 -26.14258 28.52910 10876 ft 342 kts 134°
2026-05-03 21:17 -26.15944 28.54853 11035 ft 356 kts 133°
2026-05-03 21:18 -26.17665 28.56886 11429 ft 361 kts 133°
2026-05-03 21:18 -26.19384 28.58929 11960 ft 362 kts 133°
2026-05-03 21:18 -26.21113 28.60985 12471 ft 364 kts 133°
2026-05-03 21:18 -26.22834 28.63029 12960 ft 366 kts 133°
2026-05-03 21:19 -26.24586 28.65109 13469 ft 369 kts 133°
2026-05-03 21:19 -26.26347 28.67198 13957 ft 371 kts 133°
2026-05-03 21:19 -26.28121 28.69303 14404 ft 374 kts 133°
2026-05-03 21:19 -26.29912 28.71429 14823 ft 377 kts 133°
2026-05-03 21:20 -26.31716 28.73572 15222 ft 380 kts 133°
2026-05-03 21:20 -26.33532 28.75730 15631 ft 383 kts 133°
2026-05-03 21:20 -26.35368 28.77913 16061 ft 386 kts 133°
2026-05-03 21:20 -26.37215 28.80111 16451 ft 389 kts 133°
2026-05-03 21:21 -26.39074 28.82323 16846 ft 392 kts 133°
2026-05-03 21:21 -26.40949 28.84556 17243 ft 395 kts 133°
2026-05-03 21:21 -26.42814 28.86779 17628 ft 398 kts 133°
2026-05-03 21:21 -26.44738 28.89071 18037 ft 401 kts 133°
2026-05-03 21:22 -26.46628 28.91327 18418 ft 404 kts 133°
2026-05-03 21:22 -26.48556 28.93626 18768 ft 407 kts 133°
2026-05-03 21:22 -26.50490 28.95936 19136 ft 409 kts 133°
2026-05-03 21:22 -26.52440 28.98265 19468 ft 411 kts 133°
2026-05-03 21:23 -26.54393 29.00600 19827 ft 412 kts 133°
2026-05-03 21:23 -26.56361 29.02954 20155 ft 415 kts 133°
2026-05-03 21:23 -26.58332 29.05312 20494 ft 417 kts 133°
2026-05-03 21:23 -26.60317 29.07688 20830 ft 418 kts 133°
2026-05-03 21:24 -26.62312 29.10078 21172 ft 420 kts 133°
2026-05-03 21:24 -26.64309 29.12472 21490 ft 423 kts 133°
2026-05-03 21:24 -26.66319 29.14882 21834 ft 424 kts 133°
2026-05-03 21:24 -26.68309 29.17270 22141 ft 427 kts 133°
2026-05-03 21:25 -26.70341 29.19709 22474 ft 429 kts 133°
2026-05-03 21:25 -26.72373 29.22150 22782 ft 431 kts 133°
2026-05-03 21:25 -26.74423 29.24614 23094 ft 433 kts 133°
2026-05-03 21:25 -26.76479 29.27087 23387 ft 435 kts 133°
2026-05-03 21:26 -26.78549 29.29577 23724 ft 437 kts 133°
2026-05-03 21:26 -26.80625 29.32076 24011 ft 439 kts 133°
2026-05-03 21:26 -26.82709 29.34586 24302 ft 440 kts 133°
2026-05-03 21:26 -26.84799 29.37106 24581 ft 442 kts 133°
2026-05-03 21:27 -26.86898 29.39637 24856 ft 443 kts 133°
2026-05-03 21:27 -26.88977 29.42146 25151 ft 445 kts 133°
2026-05-03 21:27 -26.91124 29.44643 25401 ft 446 kts 137°
2026-05-03 21:27 -26.93534 29.46841 25672 ft 447 kts 145°
2026-05-03 21:28 -26.96105 29.48813 25961 ft 449 kts 146°
2026-05-03 21:28 -26.98688 29.50820 26266 ft 451 kts 145°
2026-05-03 21:28 -27.01277 29.52845 26582 ft 452 kts 145°
2026-05-03 21:28 -27.03861 29.54870 26907 ft 454 kts 145°
2026-05-03 21:29 -27.06421 29.56876 27234 ft 456 kts 145°
2026-05-03 21:29 -27.09028 29.58918 27574 ft 458 kts 145°
2026-05-03 21:29 -27.11651 29.60972 27914 ft 460 kts 145°
2026-05-03 21:29 -27.14280 29.63033 28264 ft 462 kts 145°
2026-05-03 21:30 -27.16921 29.65103 28604 ft 464 kts 145°
2026-05-03 21:30 -27.19571 29.67182 28960 ft 466 kts 145°
2026-05-03 21:30 -27.22236 29.69274 29290 ft 468 kts 145°
2026-05-03 21:30 -27.24909 29.71373 29635 ft 470 kts 145°
2026-05-03 21:31 -27.27596 29.73485 29985 ft 472 kts 145°
2026-05-03 21:31 -27.30295 29.75607 30358 ft 474 kts 145°
2026-05-03 21:31 -27.33006 29.77741 30633 ft 477 kts 145°
2026-05-03 21:31 -27.35731 29.79886 30894 ft 479 kts 146°
2026-05-03 21:32 -27.38471 29.82044 31186 ft 482 kts 146°
2026-05-03 21:32 -27.41186 29.84185 31470 ft 484 kts 146°
2026-05-03 21:32 -27.43952 29.86366 31741 ft 486 kts 146°
2026-05-03 21:32 -27.46728 29.88558 32023 ft 488 kts 146°
2026-05-03 21:33 -27.49522 29.90764 32277 ft 491 kts 146°
2026-05-03 21:33 -27.52325 29.92979 32552 ft 493 kts 146°
2026-05-03 21:33 -27.55138 29.95204 32826 ft 495 kts 146°
2026-05-03 21:33 -27.57969 29.97444 33089 ft 498 kts 146°
2026-05-03 21:34 -27.60816 29.99697 33354 ft 500 kts 146°
2026-05-03 21:34 -27.63675 30.01963 33614 ft 503 kts 146°